• In Russia
  • List of Countries
  • For 7 days
  • Water Temperature
  • Satellite Maps
  • Weather Map
  • Weather Widgets
  • user-avatar
    Login

    Hourly Weather Gold Coast

    Today, 9 December, Friday

    Time Temperature Precipitation Wind Pressure Humidity
    00:00 +26°C° 0.8 mm 6 mps 752 mmHg 92%
    01:00 +24°C° 0.8 mm 6 mps 752 mmHg 91%
    02:00 +24°C° 0 mm 6 mps 752 mmHg 91%
    03:00 +24°C° 0 mm 7 mps 752 mmHg 90%
    04:00 +25°C° 0 mm 5 mps 752 mmHg 90%
    05:00 +24°C° 0.1 mm 6 mps 752 mmHg 88%
    06:00 +24°C° 0.1 mm 6 mps 752 mmHg 87%
    07:00 +26°C° 0.1 mm 6 mps 753 mmHg 86%
    08:00 +27°C° 0.3 mm 6 mps 753 mmHg 80%
    09:00 +28°C° 0.3 mm 6 mps 753 mmHg 74%
    10:00 +29°C° 0.3 mm 6 mps 753 mmHg 67%
    11:00 +32°C° 0.1 mm 5 mps 753 mmHg 59%
    12:00 +33°C° 0.1 mm 5 mps 753 mmHg 51%
    13:00 +35°C° 0.1 mm 5 mps 753 mmHg 42%
    14:00 +34°C° 0.1 mm 5 mps 753 mmHg 41%
    15:00 +34°C° 0.1 mm 5 mps 753 mmHg 40%
    16:00 +33°C° 0.1 mm 5 mps 753 mmHg 39%
    17:00 +30°C° 0 mm 6 mps 753 mmHg 49%
    18:00 +27°C° 0 mm 7 mps 754 mmHg 60%
    19:00 +24°C° 0 mm 8 mps 755 mmHg 71%
    20:00 +23°C° 0 mm 8 mps 756 mmHg 71%
    21:00 +23°C° 0 mm 8 mps 757 mmHg 71%
    22:00 +22°C° 0 mm 8 mps 757 mmHg 71%
    23:00 +22°C° 0 mm 7 mps 758 mmHg 71%

    Tomorrow, 10 December, Saturday

    Time Temperature Precipitation Wind Pressure Humidity
    00:00 +21°C° 0 mm 7 mps 758 mmHg 71%
    01:00 +21°C° 0 mm 7 mps 758 mmHg 71%
    02:00 +20°C° 0 mm 7 mps 758 mmHg 72%
    03:00 +20°C° 0 mm 7 mps 758 mmHg 73%
    04:00 +20°C° 0 mm 7 mps 759 mmHg 74%
    05:00 +21°C° 0 mm 7 mps 759 mmHg 71%
    06:00 +22°C° 0 mm 7 mps 760 mmHg 69%
    07:00 +23°C° 0 mm 8 mps 760 mmHg 66%
    08:00 +24°C° 0 mm 8 mps 761 mmHg 64%
    09:00 +24°C° 0 mm 8 mps 761 mmHg 61%
    10:00 +26°C° 0 mm 8 mps 761 mmHg 58%
    11:00 +26°C° 0 mm 8 mps 761 mmHg 58%
    12:00 +26°C° 0 mm 8 mps 761 mmHg 58%
    13:00 +26°C° 0 mm 8 mps 761 mmHg 58%
    14:00 +26°C° 0.1 mm 8 mps 761 mmHg 60%
    15:00 +24°C° 0.1 mm 7 mps 760 mmHg 61%
    16:00 +24°C° 0.1 mm 7 mps 760 mmHg 63%
    17:00 +23°C° 0 mm 7 mps 761 mmHg 67%
    18:00 +22°C° 0 mm 6 mps 761 mmHg 71%
    19:00 +21°C° 0 mm 6 mps 761 mmHg 75%
    20:00 +20°C° 0 mm 5 mps 762 mmHg 77%
    21:00 +20°C° 0 mm 5 mps 762 mmHg 79%
    22:00 +19°C° 0 mm 5 mps 762 mmHg 82%
    23:00 +19°C° 0 mm 5 mps 762 mmHg 82%

    Day after tomorrow, 11 December, Sunday

    Time Temperature Precipitation Wind Pressure Humidity
    00:00 +19°C° 0 mm 5 mps 761 mmHg 82%
    01:00 +19°C° 0 mm 5 mps 761 mmHg 82%
    02:00 +19°C° 0 mm 5 mps 761 mmHg 81%
    03:00 +19°C° 0 mm 5 mps 761 mmHg 81%
    04:00 +20°C° 0 mm 5 mps 761 mmHg 80%
    05:00 +21°C° 0 mm 5 mps 761 mmHg 75%
    06:00 +22°C° 0 mm 5 mps 761 mmHg 71%
    07:00 +23°C° 0 mm 5 mps 762 mmHg 66%
    08:00 +25°C° 0 mm 5 mps 762 mmHg 62%
    09:00 +25°C° 0 mm 5 mps 762 mmHg 58%
    10:00 +26°C° 0 mm 5 mps 762 mmHg 54%
    11:00 +27°C° 0 mm 5 mps 762 mmHg 53%
    12:00 +27°C° 0 mm 5 mps 761 mmHg 51%
    13:00 +28°C° 0 mm 5 mps 761 mmHg 49%
    14:00 +28°C° 0 mm 5 mps 761 mmHg 51%
    15:00 +27°C° 0 mm 5 mps 760 mmHg 52%
    16:00 +27°C° 0 mm 5 mps 760 mmHg 54%
    17:00 +25°C° 0 mm 5 mps 761 mmHg 60%
    18:00 +22°C° 0 mm 5 mps 761 mmHg 66%
    19:00 +21°C° 0 mm 4 mps 761 mmHg 73%
    20:00 +20°C° 0 mm 4 mps 762 mmHg 75%
    21:00 +20°C° 0 mm 4 mps 762 mmHg 78%
    22:00 +19°C° 0 mm 4 mps 763 mmHg 80%
    23:00 +19°C° 0 mm 4 mps 762 mmHg 82%

    12 December, Monday

    Time Temperature Precipitation Wind Pressure Humidity
    00:00 +19°C° 0 mm 4 mps 762 mmHg 83%
    01:00 +18°C° 0 mm 4 mps 761 mmHg 85%
    02:00 +19°C° 0 mm 4 mps 761 mmHg 83%
    03:00 +19°C° 0 mm 4 mps 761 mmHg 81%
    04:00 +20°C° 0 mm 5 mps 761 mmHg 79%
    05:00 +21°C° 0 mm 5 mps 762 mmHg 76%
    06:00 +21°C° 0 mm 5 mps 762 mmHg 73%
    07:00 +22°C° 0 mm 5 mps 763 mmHg 70%
    08:00 +23°C° 0 mm 5 mps 763 mmHg 65%
    09:00 +26°C° 0 mm 5 mps 763 mmHg 59%
    10:00 +27°C° 0 mm 6 mps 763 mmHg 53%
    11:00 +28°C° 0 mm 6 mps 762 mmHg 52%
    12:00 +28°C° 0 mm 6 mps 762 mmHg 52%
    13:00 +28°C° 0 mm 6 mps 761 mmHg 51%
    14:00 +28°C° 0 mm 6 mps 761 mmHg 52%
    15:00 +28°C° 0 mm 6 mps 761 mmHg 52%
    16:00 +27°C° 0 mm 6 mps 761 mmHg 53%
    17:00 +26°C° 0 mm 5 mps 761 mmHg 60%
    18:00 +23°C° 0 mm 5 mps 761 mmHg 67%
    19:00 +21°C° 0 mm 4 mps 762 mmHg 74%
    20:00 +20°C° 0 mm 4 mps 762 mmHg 79%
    21:00 +19°C° 0 mm 4 mps 762 mmHg 83%
    22:00 +19°C° 0 mm 4 mps 763 mmHg 87%
    23:00 +18°C° 0 mm 3 mps 762 mmHg 89%

    13 December, Tuesday

    Time Temperature Precipitation Wind Pressure Humidity
    00:00 +18°C° 0 mm 3 mps 762 mmHg 90%
    01:00 +18°C° 0 mm 3 mps 761 mmHg 92%
    02:00 +18°C° 0 mm 3 mps 761 mmHg 92%
    03:00 +18°C° 0 mm 2 mps 761 mmHg 92%
    04:00 +18°C° 0 mm 2 mps 761 mmHg 92%
    05:00 +19°C° 0 mm 2 mps 761 mmHg 85%
    06:00 +21°C° 0 mm 2 mps 761 mmHg 78%
    07:00 +24°C° 0 mm 2 mps 762 mmHg 71%
    08:00 +25°C° 0 mm 2 mps 761 mmHg 64%
    09:00 +27°C° 0 mm 3 mps 761 mmHg 58%
    10:00 +28°C° 0 mm 3 mps 761 mmHg 51%
    11:00 +29°C° 0 mm 3 mps 761 mmHg 48%
    12:00 +30°C° 0 mm 3 mps 760 mmHg 44%
    13:00 +32°C° 0 mm 4 mps 759 mmHg 40%
    14:00 +30°C° 0 mm 4 mps 759 mmHg 43%
    15:00 +30°C° 0 mm 4 mps 758 mmHg 46%
    16:00 +29°C° 0 mm 4 mps 758 mmHg 49%
    17:00 +27°C° 0 mm 4 mps 758 mmHg 58%
    18:00 +25°C° 0 mm 4 mps 759 mmHg 67%
    19:00 +21°C° 0 mm 4 mps 759 mmHg 76%
    20:00 +20°C° 0 mm 3 mps 759 mmHg 81%
    21:00 +19°C° 0 mm 3 mps 760 mmHg 86%
    22:00 +18°C° 0 mm 3 mps 760 mmHg 91%
    23:00 +18°C° 0 mm 3 mps 759 mmHg 92%

    14 December, Wednesday

    Time Temperature Precipitation Wind Pressure Humidity
    00:00 +18°C° 0 mm 2 mps 759 mmHg 93%
    01:00 +17°C° 0 mm 2 mps 758 mmHg 94%
    02:00 +17°C° 0 mm 2 mps 758 mmHg 94%
    03:00 +17°C° 0 mm 2 mps 758 mmHg 94%
    04:00 +17°C° 0 mm 2 mps 758 mmHg 94%
    05:00 +20°C° 0 mm 2 mps 759 mmHg 87%
    06:00 +23°C° 0 mm 2 mps 759 mmHg 80%
    07:00 +25°C° 0 mm 2 mps 759 mmHg 73%
    08:00 +26°C° 0 mm 3 mps 759 mmHg 65%
    09:00 +28°C° 0 mm 3 mps 759 mmHg 57%
    10:00 +30°C° 0 mm 3 mps 758 mmHg 48%
    11:00 +32°C° 0 mm 4 mps 758 mmHg 46%
    12:00 +33°C° 0 mm 4 mps 757 mmHg 43%
    13:00 +34°C° 0 mm 5 mps 756 mmHg 40%
    14:00 +33°C° 0 mm 6 mps 756 mmHg 45%
    15:00 +32°C° 0 mm 6 mps 756 mmHg 49%
    16:00 +30°C° 0 mm 7 mps 755 mmHg 53%
    17:00 +28°C° 0 mm 6 mps 756 mmHg 60%
    18:00 +26°C° 0 mm 6 mps 756 mmHg 68%
    19:00 +23°C° 0 mm 6 mps 756 mmHg 75%
    20:00 +22°C° 0 mm 6 mps 757 mmHg 80%
    21:00 +21°C° 0 mm 5 mps 757 mmHg 85%
    22:00 +21°C° 0 mm 5 mps 757 mmHg 90%
    23:00 +20°C° 0 mm 5 mps 757 mmHg 91%
    Show more